[[{"header":{"parameterUnit":"m.s-1","parameterCategory":1,"la1":30.2991,"la2":30.254,"lo1":-89.0895,"lo2":-89.0444,"dy":0.0017,"dx":0.0017,"nx":28,"ny":28,"refTime":"2023-09-03T09:00:00:Z","depth":0,"parameterNumber":2,"parameterNumberName":"U-component_of_WINDS"},"data":[0,0,0,0,0,0,0,0,0,0,0,0,0,0,0,0,0,0,0,0,0,0,0,0,0,0,0,0,0,0,0,0,0,0,0,0,0,0,0,0,0,0,0,0,0,0,0,0,0,0,0,0,0,0,0,0,0,0,-4.6205,-4.6206,0,-4.6268,-4.6269,-4.627,-4.6199,-4.6196,-4.6193,-4.6191,-4.6254,-4.6258,-4.6262,0,0,0,0,0,0,0,0,0,0,0,0,0,-4.6021,-4.6024,-4.6205,-4.6206,-4.6207,-4.6268,-4.6269,-4.627,-4.6199,-4.6196,-4.6192,-4.6189,-4.6252,-4.6257,-4.6262,0,0,0,0,0,0,0,0,0,0,0,0,0,-4.6094,-4.6026,-4.6205,-4.6179,-4.6177,-4.6268,-4.6269,-4.627,-4.62,-4.6196,-4.6192,-4.6188,-4.6251,-4.6257,-4.6263,-4.6383,0,0,-4.6282,-4.6285,0,0,0,0,0,0,0,0,-4.609,-4.6101,-4.6182,-4.6181,-4.6179,-4.6221,-4.6227,-4.6308,-4.6201,-4.6191,-4.619,-4.6186,-4.6246,-4.6253,-4.6273,-4.6386,-4.6388,-4.6283,-4.6287,-4.6289,-4.6291,0,0,0,0,0,0,0,-4.6085,-4.6098,-4.623,-4.6183,-4.6181,-4.6163,-4.6169,-4.6242,-4.624,-4.6192,-4.6186,-4.6195,-4.6245,-4.6267,-4.6274,-4.6389,-4.6283,-4.6288,-4.6292,-4.6295,-4.6602,-4.6606,0,0,0,0,0,0,-4.6083,-4.6094,-4.6228,-4.6232,-4.6124,-4.617,-4.6176,-4.6212,-4.6239,-4.624,-4.6198,-4.6192,-4.6259,-4.6267,-4.6276,-4.6416,-4.6289,-4.6295,-4.6299,-4.6597,-4.6603,-4.6607,0,0,0,0,0,0,-4.608,-4.6096,-4.6225,-4.6162,-4.6177,-4.6177,-4.6218,-4.6215,-4.6238,-4.6245,-4.6244,-4.6222,-4.6256,-4.6267,-4.6356,-4.6417,-4.6298,-4.6304,-4.6592,-4.6599,-4.6605,-4.6699,0,0,0,0,0,0,-4.6075,-4.6095,-4.6141,-4.6163,-4.6181,-4.6305,-4.6221,-4.6219,-4.6249,-4.6241,-4.6267,-4.6267,-4.6253,-4.6348,-4.6363,-4.6424,-4.6309,-4.6587,-4.6595,-4.6603,-4.669,-4.6708,-4.6723,0,0,0,0,0,-4.6068,-4.6165,-4.6143,-4.616,-4.6238,-4.6309,-4.6319,-4.6302,-4.6254,-4.63,-4.6304,-4.6266,-4.6409,-4.6357,-4.6374,-4.6438,-4.6583,-4.6593,-4.6602,-4.6683,-4.6704,-4.6722,0,0,0,0,0,0,-4.6148,-4.6167,-4.6144,-4.625,-4.6279,-4.6297,-4.6354,-4.6325,-4.6367,-4.6357,-4.6334,-4.6341,-4.6435,-4.6446,-4.6388,-4.6555,-4.6488,-4.6502,-4.6543,-4.6564,-4.658,-4.6574,-4.6314,0,0,0,0,0,-4.6179,-4.6236,-4.6249,-4.6341,-4.6357,-4.6354,-4.6384,-4.6368,-4.6396,-4.6408,-4.6419,-4.6447,-4.6498,-4.6532,-4.658,-4.6693,-4.6696,-4.6745,-4.6761,-4.6774,-4.6786,-4.6844,-4.6865,-4.664,-4.664,-4.6639,0,0,-4.6241,-4.6259,-4.6296,-4.6358,-4.6378,-4.6437,-4.6364,-4.6429,-4.6472,-4.6418,-4.6502,-4.6511,-4.6541,-4.6643,-4.6688,-4.6654,-4.6849,-4.6787,-4.6798,-4.6801,-4.6857,-4.6878,-4.6897,-4.6646,-4.6645,-4.6644,0,0,-4.6385,-4.6405,-4.6483,-4.6505,-4.6537,-4.6534,-4.6553,-4.6576,-4.658,-4.6665,-4.6625,-4.6676,-4.6765,-4.6787,-4.681,-4.6964,-4.6929,-4.698,-4.7064,-4.7122,-4.7139,-4.7155,-4.7207,-4.7227,-4.6992,-4.6992,-4.6992,0,-4.6458,-4.6545,-4.6527,-4.6595,-4.6623,-4.6578,-4.6656,-4.6679,-4.6724,-4.6744,-4.6707,-4.6817,-4.6834,-4.6939,-4.6977,-4.6998,-4.7018,-4.6975,-4.7138,-4.7154,-4.7168,-4.7218,-4.7238,-4.6998,-4.6997,-4.6996,-4.6996,0,-4.6633,-4.6694,-4.6753,-4.6799,-4.6834,-4.6907,-4.6899,-4.6937,-4.6919,-4.692,-4.7006,-4.7026,-4.7076,-4.71,-4.7084,-4.7203,-4.7181,-4.7142,-4.7074,-4.7196,-4.7242,-4.7261,-4.7006,-4.7004,-4.7002,-4.7001,0,0,-4.6826,-4.6861,-4.6883,-4.6902,-4.6935,-4.6981,-4.7052,-4.7102,-4.7134,-4.7167,-4.7225,-4.7302,-4.7266,-4.7292,-4.7278,-4.7329,-4.7447,-4.7283,-4.7283,-4.731,-4.7577,-4.7604,-4.7627,-4.7426,-4.7429,-4.7432,-4.7574,0,-4.6967,-4.709,-4.7077,-4.7194,-4.7249,-4.7208,-4.7269,-4.7296,-4.7299,-4.7346,-4.7349,-4.7403,-4.7353,-4.7368,-4.7417,-4.7422,-4.7499,-4.7412,-4.7477,-4.748,-4.7468,-4.7651,-4.768,-4.7813,-4.7592,-4.7595,-4.7597,0,-4.7149,-4.7189,-4.7311,-4.7334,-4.7357,-4.7413,-4.7457,-4.7503,-4.7532,-4.753,-4.7561,-4.7538,-4.7608,-4.7541,-4.7637,-4.7578,-4.7605,-4.7611,-4.7616,-4.7619,-4.7544,-4.7656,-4.7855,-4.7874,-4.7626,-4.7624,-4.7622,0,-4.7274,-4.7359,-4.7443,-4.7461,-4.7491,-4.7531,-4.7545,-4.757,-4.7601,-4.7639,-4.7659,-4.7706,-4.773,-4.7767,-4.7757,-4.7709,-4.7854,-4.7787,-4.7854,-4.7854,-4.7883,-4.7881,-4.8086,-4.7906,-4.7906,-4.7905,-4.7905,0,-4.7432,-4.7508,-4.7499,-4.755,-4.7634,-4.7618,-4.7701,-4.771,-4.7733,-4.7785,-4.7753,-4.7802,-4.7787,-4.7836,-4.7829,-4.7908,-4.7921,-4.792,-4.7917,-4.7921,-4.7921,-4.7936,-4.7925,-4.791,-4.7909,-4.7908,-4.7907,0,-4.7584,-4.7582,-4.767,-4.7692,-4.7699,-4.7759,-4.7777,-4.7825,-4.7827,-4.7893,-4.7907,-4.7909,-4.7965,-4.7959,-4.8022,-4.8017,-4.8114,-4.8102,-4.8105,-4.81,-4.8166,-4.8159,-4.8386,-4.8414,-4.8218,-4.822,-4.8222,0,-4.7683,-4.7741,-4.7769,-4.7801,-4.7818,-4.7872,-4.7903,-4.789,-4.7923,-4.7961,-4.8004,-4.8057,-4.8097,-4.8188,-4.8195,-4.8242,-4.8228,-4.8305,-4.8235,-4.8237,-4.8226,-4.8222,-4.8226,-4.8317,-4.8319,-4.8321,-4.8323,0,-4.7859,-4.7855,-4.7901,-4.7948,-4.7986,-4.8021,-4.8054,-4.8082,-4.8072,-4.8112,-4.8168,-4.82,-4.8264,-4.8316,-4.8361,-4.8375,-4.8347,-4.8345,-4.8362,-4.8366,-4.8364,-4.8363,-4.8139,-4.8339,-4.8337,-4.8336,-4.8335,-4.8335,-4.7986,-4.8035,-4.8062,-4.8114,-4.8137,-4.8168,-4.8214,-4.8222,-4.8269,-4.8319,-4.8309,-4.8372,-4.84,-4.8457,-4.8476,-4.8525,-4.8497,-4.8523,-4.8529,-4.8535,-4.8541,-4.8359,-4.8533,-4.8533,-4.8532,-4.8532,-4.8532,0,-4.8158,-4.8173,-4.8222,-4.8268,-4.8309,-4.8281,-4.8315,-4.8351,-4.8407,-4.8436,-4.8477,-4.8541,-4.8592,-4.8604,-4.8652,-4.8689,-4.8677,-4.8702,-4.8697,-4.8701,-4.8564,-4.8543,-4.871,-4.871,-4.871,-4.871,-4.871,-4.871,-4.8251,-4.8332,-4.8331,-4.8422,-4.8437,-4.8499,-4.8521,-4.8549,-4.8571,-4.8645,-4.8687,-4.8694,-4.8716,-4.8765,-4.881,-4.8813,-4.8831,-4.886,-4.8857,-4.8728,-4.871,-4.8693,-4.8673,-4.8865,-4.8865,-4.8988,-4.8989,-4.899]},{"header":{"parameterUnit":"m.s-1","parameterCategory":1,"la1":30.2991,"la2":30.254,"lo1":-89.0895,"lo2":-89.0444,"dy":0.0017,"dx":0.0017,"nx":28,"ny":28,"refTime":"2023-09-03T09:00:00:Z","depth":0,"parameterNumber":3,"parameterNumberName":"V-component_of_WINDS"},"data":[0,0,0,0,0,0,0,0,0,0,0,0,0,0,0,0,0,0,0,0,0,0,0,0,0,0,0,0,0,0,0,0,0,0,0,0,0,0,0,0,0,0,0,0,0,0,0,0,0,0,0,0,0,0,0,0,0,0,1.4623,1.4623,0,1.4564,1.4564,1.4563,1.4497,1.4496,1.4495,1.4494,1.4431,1.443,1.4429,0,0,0,0,0,0,0,0,0,0,0,0,0,1.4676,1.4676,1.4623,1.4622,1.4622,1.4564,1.4564,1.4563,1.4497,1.4496,1.4495,1.4494,1.4431,1.443,1.4429,0,0,0,0,0,0,0,0,0,0,0,0,0,1.4639,1.4676,1.4623,1.4582,1.4578,1.4565,1.4564,1.4563,1.4498,1.4496,1.4495,1.4493,1.4431,1.443,1.4429,1.445,0,0,1.4425,1.4425,0,0,0,0,0,0,0,0,1.4641,1.4637,1.4589,1.4585,1.458,1.4537,1.4559,1.4525,1.4498,1.4528,1.4494,1.4493,1.4467,1.4463,1.4455,1.4447,1.4444,1.4425,1.4424,1.4424,1.4423,0,0,0,0,0,0,0,1.4644,1.4639,1.46,1.4588,1.4583,1.4566,1.4559,1.4552,1.4506,1.4525,1.452,1.4515,1.4464,1.4456,1.4453,1.4443,1.4425,1.4424,1.4423,1.4423,1.445,1.4452,0,0,0,0,0,0,1.4653,1.4642,1.4602,1.4598,1.4608,1.4566,1.4558,1.4552,1.4506,1.4498,1.4516,1.4512,1.4459,1.4454,1.445,1.4472,1.4424,1.4423,1.4422,1.4449,1.4451,1.4452,0,0,0,0,0,0,1.4655,1.465,1.4604,1.4619,1.4611,1.4567,1.456,1.4552,1.4543,1.4499,1.449,1.4516,1.4457,1.4452,1.4451,1.4469,1.4422,1.4421,1.4447,1.445,1.4452,1.4516,0,0,0,0,0,0,1.4656,1.4651,1.4659,1.4619,1.4611,1.4607,1.4561,1.4552,1.4542,1.4536,1.4497,1.4489,1.4456,1.4453,1.445,1.4466,1.442,1.4445,1.4448,1.4451,1.4512,1.452,1.4527,0,0,0,0,0,1.4658,1.4679,1.466,1.4655,1.462,1.4608,1.4603,1.4566,1.4544,1.4551,1.4523,1.449,1.4468,1.4453,1.4449,1.4466,1.4444,1.4447,1.4451,1.4509,1.4519,1.4527,0,0,0,0,0,0,1.472,1.4673,1.4651,1.466,1.4639,1.4597,1.4605,1.4577,1.4561,1.4556,1.4509,1.4501,1.4505,1.4485,1.447,1.4484,1.4451,1.4454,1.4497,1.4506,1.4513,1.4518,1.4419,0,0,0,0,0,1.4735,1.473,1.4688,1.47,1.469,1.465,1.4643,1.4616,1.4592,1.4582,1.4554,1.4531,1.4518,1.4511,1.4497,1.4509,1.45,1.4519,1.4526,1.4533,1.4535,1.454,1.4548,1.4463,1.4463,1.4463,0,0,1.4765,1.4739,1.4738,1.4712,1.4692,1.4687,1.4643,1.4639,1.4635,1.4581,1.4579,1.4558,1.4528,1.4535,1.4536,1.4518,1.4557,1.4537,1.4542,1.4541,1.4544,1.4553,1.456,1.4465,1.4465,1.4465,0,0,1.4818,1.4797,1.4805,1.4787,1.4758,1.4731,1.4733,1.4696,1.468,1.4678,1.4638,1.4632,1.4611,1.4593,1.458,1.4628,1.4597,1.4624,1.4663,1.4669,1.4675,1.4681,1.4698,1.4704,1.4627,1.4627,1.4627,0,1.4858,1.485,1.4812,1.4811,1.48,1.4754,1.4761,1.4745,1.4713,1.4706,1.4687,1.4662,1.4639,1.464,1.4652,1.4643,1.4644,1.4628,1.4678,1.4683,1.4688,1.4703,1.471,1.4631,1.463,1.463,1.463,0,1.4902,1.4897,1.4906,1.4878,1.4869,1.4872,1.4833,1.4828,1.4803,1.4778,1.4776,1.4747,1.4727,1.4725,1.4699,1.4723,1.4713,1.4687,1.4652,1.47,1.4714,1.4719,1.4636,1.4634,1.4633,1.4633,0,0,1.499,1.4942,1.4946,1.4933,1.4899,1.4894,1.4895,1.4877,1.4874,1.4854,1.4853,1.4838,1.4814,1.48,1.4772,1.4777,1.4816,1.475,1.4748,1.4763,1.484,1.486,1.4867,1.4796,1.4797,1.4798,1.4842,0,1.5036,1.5036,1.5002,1.5011,1.5006,1.4963,1.4963,1.4942,1.4919,1.4911,1.4885,1.4875,1.4844,1.4836,1.4839,1.4811,1.4831,1.4807,1.4794,1.4794,1.4803,1.4874,1.4895,1.4938,1.4848,1.4848,1.4849,0,1.509,1.5074,1.5084,1.505,1.5047,1.5048,1.5029,1.5022,1.4997,1.498,1.4966,1.4935,1.4933,1.4901,1.4898,1.4882,1.4875,1.4861,1.4862,1.4858,1.4824,1.4873,1.4951,1.4958,1.4857,1.4856,1.4856,0,1.5153,1.5135,1.5138,1.5129,1.509,1.5092,1.5075,1.5049,1.5041,1.5024,1.5018,1.5001,1.4991,1.4978,1.4943,1.4923,1.4943,1.4909,1.4928,1.4929,1.4934,1.4934,1.5012,1.493,1.493,1.493,1.493,0,1.5208,1.5215,1.5167,1.5169,1.5175,1.5136,1.5144,1.5123,1.51,1.5097,1.5058,1.5055,1.5009,1.5001,1.4974,1.4975,1.4971,1.4956,1.4949,1.496,1.4962,1.4954,1.495,1.4932,1.4931,1.4931,1.4931,0,1.528,1.5248,1.5248,1.5212,1.5203,1.521,1.5178,1.5178,1.5153,1.515,1.5147,1.5107,1.5096,1.506,1.5039,1.5021,1.503,1.5016,1.5039,1.5034,1.5056,1.5054,1.5131,1.5139,1.5053,1.5054,1.5055,0,1.5317,1.5322,1.5287,1.5282,1.5268,1.5261,1.5253,1.5215,1.5207,1.518,1.5183,1.517,1.5156,1.514,1.5109,1.5094,1.5078,1.5107,1.5076,1.5087,1.5079,1.5079,1.5079,1.5113,1.5114,1.5115,1.5116,0,1.5386,1.537,1.536,1.5345,1.5336,1.5322,1.5305,1.5304,1.5261,1.5255,1.5244,1.5234,1.5214,1.52,1.518,1.5162,1.5132,1.5126,1.513,1.514,1.5154,1.5147,1.5057,1.5124,1.5123,1.5123,1.5122,1.5122,1.5441,1.5443,1.542,1.541,1.5394,1.538,1.5378,1.5354,1.5344,1.5326,1.5304,1.5296,1.5271,1.524,1.5225,1.5217,1.5201,1.5206,1.5207,1.5209,1.5214,1.5156,1.5213,1.5213,1.5213,1.5212,1.5212,0,1.5508,1.5491,1.5482,1.5461,1.5454,1.5428,1.5408,1.5403,1.5397,1.5377,1.5366,1.5353,1.534,1.5309,1.5293,1.5293,1.5279,1.529,1.5289,1.5285,1.523,1.5228,1.5302,1.5302,1.5302,1.5302,1.5302,1.5302,1.5542,1.5545,1.5526,1.5521,1.5503,1.5496,1.5487,1.5474,1.5458,1.5446,1.5436,1.5416,1.5391,1.5373,1.536,1.5351,1.5347,1.5363,1.5349,1.5298,1.5289,1.5281,1.5279,1.5362,1.5362,1.5405,1.5406,1.5406]}]]